Starlink 3625

operational
NORAD ID: 51777 Int'l Des: 2022-017 Owner: SPXS Country: US Constellation: starlink
LEOCIRCULAR

关于 Starlink 3625

正在加载描述...

实时位置

正在加载3D地球...

即将过境

高度历史

Altitude vs Time

uPlot chart will show altitude changes over time

两行轨道根数

1 51777U 22017K 25304.69286514 .00002686 00000-0 18682-3 0 9994
2 51777 53.2161 198.1839 0001986 86.1831 273.9388 15.08837732203129
Epoch: Oct 31, 2025 • Age: 24 hours

当前状态

高度 540.9 km
速度 7.59 km/s
星下点 -1.67°S, 95.72°W
发射日期 Feb 25, 2022
运行时间 3.6 years
类型 internet

技术详情

分类 Payload
质量 297.00 kg
干质量 275.00 kg
总质量 297.00 kg
长度 0.20 m
直径 2.80 m
跨度 9.00 m
形状 Box + pan
制造商 SPXS
平台类型 Starlink
阶段状态 In Orbit
所有者/国家 SPXS/US

大型星座

Loading constellations...